This is the latest recevied weather packets stored in our database for station/object EA7URS-13. If no packets are shown the sender has not sent any weather packets the latest 10 day(s).
| Time | Temp. | Humidity | Pressure | Rain* | Wind** | Luminosity | Snow |
|---|---|---|---|---|---|---|---|
| 1788535615 | 37.78° C | 35% | 1010.2 hPa | 0 mm | - | 338 W/m² | - |
| 1788535314 | 37.78° C | 33% | 1010.1 hPa | 0 mm | - | 362 W/m² | - |
| 1788535013 | 37.78° C | 33% | 1010.1 hPa | 0 mm | - | 362 W/m² | - |
| 1788534712 | 37.78° C | 34% | 1010.3 hPa | 0 mm | - | 391 W/m² | - |
| 1788534411 | 37.78° C | 34% | 1010.3 hPa | 0 mm | - | 391 W/m² | - |
| 1788534110 | 36.67° C | 35% | 1010.3 hPa | 0 mm | - | 415 W/m² | - |
| 1788533809 | 36.67° C | 35% | 1010.3 hPa | 0 mm | - | 415 W/m² | - |
| 1788533508 | 37.22° C | 35% | 1010.3 hPa | 0 mm | - | 440 W/m² | - |
| 1788533207 | 37.22° C | 35% | 1010.3 hPa | 0 mm | - | 440 W/m² | - |
| 1788532906 | 36.67° C | 38% | 1010.6 hPa | 0 mm | - | 468 W/m² | - |
| 1788532605 | 36.67° C | 38% | 1010.6 hPa | 0 mm | - | 468 W/m² | - |
| 1788532303 | 36.11° C | 37% | 1010.8 hPa | 0 mm | - | 491 W/m² | - |
| 1788532002 | 36.11° C | 37% | 1010.8 hPa | 0 mm | - | 491 W/m² | - |
| 1788531701 | 36.11° C | 39% | 1010.9 hPa | 0 mm | - | 516 W/m² | - |
| 1788531400 | 36.11° C | 39% | 1010.9 hPa | 0 mm | - | 516 W/m² | - |
| 1788531099 | 35.56° C | 39% | 1010.9 hPa | 0 mm | - | 557 W/m² | - |
| 1788530798 | 35.56° C | 39% | 1010.9 hPa | 0 mm | - | 557 W/m² | - |
| 1788530497 | 35° C | 41% | 1011.3 hPa | 0 mm | - | 617 W/m² | - |
| 1788530196 | 35° C | 41% | 1011.3 hPa | 0 mm | - | 617 W/m² | - |
| 1788529895 | 35° C | 39% | 1011.4 hPa | 0 mm | - | 487 W/m² | - |
| 1788529594 | 35° C | 39% | 1011.4 hPa | 0 mm | - | 487 W/m² | - |
| 1788529293 | 34.44° C | 40% | 1011.4 hPa | 0 mm | - | 438 W/m² | - |
| 1788528991 | 34.44° C | 40% | 1011.4 hPa | 0 mm | - | 438 W/m² | - |
| 1788528690 | 35° C | 40% | 1011.8 hPa | 0 mm | - | 394 W/m² | - |
| 1788528389 | 35° C | 40% | 1011.8 hPa | 0 mm | - | 394 W/m² | - |
* Rain latest hour (hover to see other rain measurements)
** Current wind speed in m/s (hover to see current wind gust speed)